www.pogodaiklimat.ru

Погода и климат >> Архив погоды >> Бельгия >> Семмерзэйк


ПОГОДА в Семмерзэйке

  • Прогноз погоды в Семмерзэйке
  • Монитор погоды в Семмерзэйке

АРХИВ ПОГОДЫ в Семмерзэйке

Время (UTC), дата Ветер
(напр.,м/с)
 
Видим.   Явления Облачность Т
(С)
Тd
(С)
f
(%)
Тe
(С)
Тes
(С)
Комфортность P
(гПа)
Po
(гПа)
Тmin
(С)
Tmax
(С)
R
(мм)
R24
(мм)
S
(см)
22 14.09
{1}
20 км н/о +12.6 +9.8 83 1027.9 1023.6
23 14.09
{1}
20 км н/о +11.3 +9.2 87 1027.5 1023.1
00 15.09 нст 1
{2}
15 км н/о +11.5 +9.6 88 +11 +11 1027.0 1022.7
01 15.09
{1}
7000 м н/о +10.3 +9.6 95 1026.7 1022.3
02 15.09
{1}
9000 м н/о +9.5 +8.9 96 1026.4 1022.1
03 15.09 Ю 2
{2}
13 км н/о +10.3 +9.1 92 +9 +9 1025.7 1021.3
04 15.09
{2}
8000 м н/о +9.8 +8.7 93 1025.5 1021.1
05 15.09
{2}
11 км н/о +9.6 +8.4 92 1025.5 1021.1
06 15.09 ЮЗ 2
{3}
13 км н/о +9.8 +8.3 90 +8 +8 1025.5 1021.2 +8.9
07 15.09 Ю 2
{3}
16 км н/о +12.9 +9.6 80 +12 +12 1025.0 1020.7
08 15.09 ЮЗ 2
{3}
15 км н/о +14.9 +10.9 77 +15 +15 1025.2 1021.0
09 15.09 З 2
{4}
19 км н/о +18.7 +11.2 62 +20 +20 1025.5 1021.3
10 15.09 З 3
{5}
19 км н/о +19.5 +11.5 60 +21 +21 комфорт 1025.5 1021.2
11 15.09 З 3
{6}
19 км н/о +21.4 +10.5 50 +23 +23 комфорт 1025.0 1020.8
12 15.09 З 2
{6}
19 км н/о +22.7 +7.1 37 +24 +24 комфорт 1024.5 1020.3
13 15.09 СЗ 2
{6}
20 км н/о +23.6 +5.3 31 +24 +24 комфорт 1023.7 1019.7
14 15.09 З 2
{6}
20 км н/о +24.2 +6.7 32 +24 +24 комфорт 1023.5 1019.2
15 15.09 З 2
{6}
20 км н/о +24.1 +5.1 29 +24 +24 комфорт 1022.8 1018.7
16 15.09 СЗ 2
{5}
20 км н/о +23.3 +6.1 33 +24 +24 комфорт 1022.6 1018.5
17 15.09 С 2
{4}
20 км н/о +21.7 +5.4 35 +22 +22 комфорт 1022.7 1018.5
18 15.09 нст 1
{6}
20 км н/о +19.2 +6.4 43 +21 +21 комфорт 1022.8 1018.7 +24.8
19 15.09 С 2
{4}
20 км н/о +16.8 +12.4 75 +17 +17 1023.2 1019.0
20 15.09
{3}
20 км н/о +15.6 +12.6 82 1023.2 1019.1
21 15.09 нст 1
{4}
20 км н/о +15.7 +13.1 85 +16 +16 1023.1 1018.8
22 15.09
{2}
20 км н/о +14.5 +13.0 91 1023.1 1018.7
23 15.09
{2}
15 км н/о +13.8 +12.8 94 1023.0 1018.7
00 16.09 нст 1
{4}
12 км н/о +13.7 +12.6 93 +14 +14 1022.2 1018.1
01 16.09
{2}
13 км н/о +14.1 +12.7 91 1022.2 1018.0
02 16.09
{1}
12 км н/о +14.1 +12.4 89 1022.0 1017.7
03 16.09 нст 1
{2}
15 км н/о +14.1 +11.9 87 +14 +14 1021.5 1017.2
04 16.09 Ю 2
{2}
15 км н/о +14.5 +12.0 85 +14 +14 1020.7 1016.6
05 16.09 Ю 2
{4}
20 км н/о +15.3 +11.1 76 +15 +15 1020.3 1016.2
06 16.09 нст 1
{5}
17 км н/о +14.5 +11.3 81 +15 +15 1020.5 1016.2 +13.1
07 16.09 ЮЗ 2
{3}
20 км н/о +15.3 +10.7 74 +15 +15 1020.8 1016.6
08 16.09 ЮЗ 2
{3}
19 км н/о +16.1 +11.9 76 +16 +16 1020.8 1016.6
09 16.09 З 2
{4}
13 км н/о +17.6 +14.1 80 +18 +18 1021.1 1016.8
10 16.09
{4}
11 км н/о +19.3 +15.3 78 1020.8 1016.7
11 16.09 З 2
{4}
14 км н/о +19.7 +15.4 76 +22 +22 комфорт 1020.8 1016.7
12 16.09 З 2
{5}
20 км н/о +20.5 +15.2 72 +24 +24 комфорт 1020.7 1016.5
13 16.09 СЗ 3
{5}
20 км н/о +20.2 +14.7 71 +23 +23 комфорт 1020.6 1016.5
14 16.09 С 3
{6}
20 км н/о +19.3 +15.2 77 +21 +21 комфорт 1020.7 1016.6
15 16.09 С 3
{6}
16 км н/о +18.6 +15.0 80 +20 +20 1020.8 1016.7
16 16.09 С 2
{5}
2500 м морось {дождь} н/о +16.5 +16.0 97 +17 +17 1021.1 1016.8
17 16.09 С 2
{3}
5000 м дымка {дождь} н/о +16.2 +15.7 97 +16 +16 1021.2 1017.0
18 16.09 нст 1
{6}
8000 м {дождь, морось} н/о +16.2 +15.5 96 +17 +17 1021.3 1017.1 +20.8 0.3
19 16.09
{2}
7000 м н/о +16.1 +14.9 93 1021.6 1017.2
20 16.09
{3}
9000 м н/о +15.3 +14.2 93 1022.0 1017.7
21 16.09 нст 1
{3}
18 км н/о +15.0 +13.7 92 +15 +15 1022.2 1018.0
22 16.09
{2}
19 км н/о +14.8 +13.2 90 1022.5 1018.2
23 16.09
{3}
15 км н/о +14.6 +13.1 91 1022.6 1018.2
00 17.09 нст 1
{4}
18 км н/о +14.3 +12.0 86 +15 +15 1022.6 1018.2
01 17.09
{1}
18 км н/о +14.1 +12.4 89 1022.3 1018.1
02 17.09
{2}
12 км н/о +14.0 +12.4 90 1022.2 1017.8
03 17.09 нст 1
{2}
11 км н/о +13.8 +12.4 91 +14 +14 1022.2 1018.0
04 17.09
{2}
8000 м н/о +13.3 +12.4 94 1022.2 1018.0
05 17.09
{1}
4800 м туман н/о +11.8 +11.6 99 1022.3 1018.1
06 17.09 нст 1
{2}
2100 м дымка {туман} н/о +11.5 +11.4 99 +11 +11 1022.7 1018.5 +11.3
07 17.09
{1}
18 км н/о +13.4 +11.3 87 1023.1 1018.7
08 17.09
{1}
20 км н/о +14.7 +9.8 72 1023.6 1019.2
09 17.09 нст 1
{2}
20 км н/о +15.6 +10.4 71 +16 +16 1023.6 1019.2
10 17.09 З 2
{4}
18 км н/о +16.4 +9.0 62 +17 +17 1023.7 1019.6
11 17.09 СЗ 3
{6}
19 км н/о +17.9 +8.1 53 +18 +18 1023.6 1019.3
12 17.09 СЗ 3
{6}
20 км н/о +19.1 +8.0 49 +20 +20 1023.3 1019.2
13 17.09 С 4
{7}
20 км н/о +18.2 +9.8 58 +18 +18 1023.5 1019.2
14 17.09 С 5
{9}
20 км н/о +18.0 +9.3 57 +18 +18 1023.8 1019.6
15 17.09 С 5
{10}
20 км н/о +17.3 +7.6 53 +17 +17 1024.0 1019.7
16 17.09 С 5
{10}
20 км н/о +16.0 +8.2 60 +15 +15 1024.2 1020.0
17 17.09 С 4
{9}
20 км н/о +15.3 +7.2 58 +14 +14 1024.7 1020.5
18 17.09 С 3
{10}
20 км н/о +13.8 +7.0 64 +13 +13 1025.0 1020.7 +19.4
19 17.09
{6}
20 км н/о +12.6 +6.9 68 1025.5 1021.2
20 17.09
{5}
20 км н/о +12.6 +7.4 71 1026.0 1021.7
21 17.09 нст 1
{6}
19 км н/о +11.1 +7.3 77 +11 +11 1026.2 1022.0
22 17.09
{2}
19 км н/о +9.9 +6.9 82 1026.5 1022.2
23 17.09
{2}
18 км н/о +9.3 +6.5 83 1026.9 1022.5
00 18.09 нст 1
{6}
16 км н/о +8.7 +6.4 85 +8 +8 1027.0 1022.6
01 18.09
{1}
17 км н/о +8.0 +6.3 89 1027.0 1022.7
02 18.09
{1}
16 км н/о +6.9 +5.5 91 1027.0 1022.6
03 18.09 нст 1
{1}
17 км н/о +6.6 +5.5 93 +5 +5 1027.0 1022.7
04 18.09
{1}
14 км н/о +6.4 +5.6 95 1027.2 1022.7
05 18.09
{1}
18 км н/о +6.4 +5.2 92 1027.7 1023.2
06 18.09 нст 1
{1}
15 км н/о +7.4 +6.7 95 +6 +6 1027.7 1023.3 +5.7
07 18.09
{1}
12 км н/о +9.5 +7.2 86 1028.2 1023.8
08 18.09 19 км н/о +13.7 +8.5 71 1028.7 1024.4
09 18.09 нст 1
{2}
20 км н/о +14.7 +6.5 58 +15 +15 1029.0 1024.7
10 18.09 С 2
{4}
19 км н/о +16.2 +5.4 49 +16 +16 1028.9 1024.5
11 18.09
{5}
18 км н/о +15.8 +6.1 52 1028.7 1024.5
12 18.09 С 4
{5}
20 км н/о +16.4 +6.1 50 +16 +16 1028.4 1024.0
13 18.09 СВ 2
{5}
20 км н/о +16.9 +5.8 48 +17 +17 1028.0 1023.7
14 18.09 С 4
{9}
20 км н/о +16.5 +5.8 49 +16 +16 1028.0 1023.7
15 18.09 С 4
{9}
20 км н/о +16.1 +6.6 53 +15 +15 1028.0 1023.7
16 18.09 С 4
{8}
19 км н/о +16.4 +7.0 54 +16 +16 1027.9 1023.7
17 18.09 С 3
{7}
20 км н/о +15.3 +7.1 58 +15 +15 1028.2 1023.8
18 18.09 С 3
{9}
20 км н/о +13.7 +6.8 63 +13 +13 1028.4 1024.0 +18.9
19 18.09
{4}
20 км н/о +12.1 +7.3 72 1029.0 1024.7
20 18.09 СВ 2
{4}
20 км н/о +11.3 +7.5 77 +10 +10 1029.2 1025.0
21 18.09 С 2
{4}
20 км н/о +11.2 +7.7 79 +10 +10 1029.5 1025.2
22 18.09 СВ 2
{3}
20 км н/о +10.6 +7.5 81 +9 +9 1030.0 1025.7
23 18.09
{2}
20 км н/о +8.9 +7.0 88 1030.4 1026.0
00 19.09 нст 1
{4}
20 км н/о +9.3 +7.4 88 +9 +9 1030.5 1026.0
01 19.09
{2}
20 км н/о +10.3 +7.7 84 1030.4 1026.0
02 19.09
{3}
20 км н/о +9.8 +7.5 86 1030.4 1026.0
03 19.09 нст 1
{3}
20 км н/о +9.8 +8.0 89 +9 +9 1030.2 1025.7
04 19.09
{1}
19 км н/о +9.5 +7.7 89 1030.2 1025.7
05 19.09
{1}
20 км н/о +9.9 +8.0 88 1030.5 1026.0
06 19.09 нст 1
{3}
20 км н/о +9.4 +8.2 92 +9 +9 1030.9 1026.5 +8.5
07 19.09
{1}
10 км н/о +11.6 +8.9 83 1031.2 1027.0
08 19.09
{3}
20 км н/о +14.0 +7.3 64 1031.7 1027.5
09 19.09 нст 1
{3}
20 км н/о +15.1 +7.3 60 +16 +16 1031.7 1027.5
10 19.09 СВ 3
{5}
20 км н/о +15.6 +7.4 58 +15 +15 1031.9 1027.5
11 19.09 СВ 2
{4}
20 км н/о +15.2 +7.3 59 +15 +15 1031.7 1027.5
12 19.09 В 2
{5}
20 км н/о +16.4 +7.6 56 +17 +17 1031.2 1027.0
13 19.09 СВ 2
{5}
20 км н/о +16.4 +7.3 55 +17 +17 1031.0 1026.7
14 19.09 СВ 2
{6}
20 км н/о +17.8 +8.1 53 +18 +18 1030.9 1026.5
15 19.09 С 3
{7}
20 км н/о +17.1 +8.3 56 +17 +17 1030.4 1026.2
16 19.09 СВ 3
{6}
20 км н/о +16.6 +8.4 58 +16 +16 1030.2 1026.0
17 19.09 СВ 2
{6}
14 км н/о +16.6 +8.2 58 +17 +17 1030.0 1025.7
18 19.09 СВ 2
{7}
20 км н/о +14.3 +8.3 67 +14 +14 1030.2 1026.0 +18.2
19 19.09 СВ 2
{4}
20 км н/о +13.2 +8.6 74 +13 +13 1030.5 1026.2
20 19.09
{3}
20 км н/о +12.3 +8.7 79 1030.7 1026.5
21 19.09 нст 1
{4}
20 км н/о +11.1 +8.7 85 +11 +11 1030.9 1026.5
22 19.09
{2}
20 км н/о +10.5 +8.2 86 1030.7 1026.4
23 19.09
{2}
20 км н/о +10.6 +7.8 83 1030.7 1026.4
00 20.09 нст 1
{4}
20 км н/о +9.2 +7.0 86 +9 +9 1030.5 1026.2
01 20.09
{2}
20 км н/о +9.1 +6.9 86 1030.4 1026.0
02 20.09
{2}
19 км н/о +8.9 +6.9 87 1030.0 1025.7
03 20.09 нст 1
{2}
13 км н/о +7.8 +6.6 92 +7 +7 1029.7 1025.4
04 20.09
{2}
14 км н/о +7.7 +6.3 91 1029.5 1025.0
05 20.09
{3}
15 км н/о +7.5 +6.1 91 1029.2 1024.7
06 20.09 СВ 2
{3}
13 км н/о +7.4 +5.8 90 +5 +5 1029.2 1024.9 +7.0
07 20.09
{3}
18 км н/о +9.5 +6.5 82 1029.4 1025.0
08 20.09 В 2
{4}
20 км н/о +11.9 +6.3 69 +11 +11 1029.5 1025.2
09 20.09 В 2
{5}
18 км н/о +14.8 +5.7 54 +15 +15 1029.5 1025.2
10 20.09 В 3
{6}
20 км н/о +16.2 +5.7 50 +16 +16 1028.5 1024.2
11 20.09 В 3
{7}
20 км н/о +16.9 +4.5 44 +17 +17 1027.7 1023.6
12 20.09 В 4
{7}
20 км н/о +18.3 +3.9 38 +18 +18 1027.0 1022.7
14 20.09 В 3
{7}
20 км н/о +19.6 +3.1 33 +20 +20 1025.5 1021.3
15 20.09 В 4
{7}
20 км н/о +19.8 +2.3 31 +20 +20 1025.0 1020.7
16 20.09 В 3
{7}
20 км н/о +19.9 +2.9 32 +21 +21 комфорт 1024.2 1020.0
17 20.09 В 4
{7}
20 км н/о +18.7 +3.1 35 +19 +19 1023.7 1019.6
18 20.09 СВ 3
{7}
20 км н/о +16.5 +3.4 42 +16 +16 1023.6 1019.2 +20.4
19 20.09 В 3
{6}
20 км н/о +15.3 +2.7 43 +15 +15 1023.2 1018.8
20 20.09 В 3
{6}
20 км н/о +14.3 +3.4 48 +14 +14 1022.6 1018.3
21 20.09 В 4
{6}
20 км н/о +14.1 +3.8 50 +13 +13 1022.2 1018.0
22 20.09 В 2
{6}
20 км н/о +13.0 +4.1 55 +12 +12 1022.2 1017.8
23 20.09 В 2
{4}
20 км н/о +12.1 +4.3 59 +11 +11 1021.6 1017.2
00 21.09 В 2
{6}
20 км н/о +11.3 +4.3 62 +10 +10 1021.1 1016.7
01 21.09 В 2
{4}
20 км н/о +10.8 +4.4 65 +10 +10 1020.7 1016.3
02 21.09 В 2
{4}
20 км н/о +9.4 +4.4 71 +8 +8 1020.2 1016.0
03 21.09 В 3
{4}
20 км н/о +9.5 +4.3 70 +7 +7 1019.8 1015.5
04 21.09 В 3
{5}
20 км н/о +9.6 +4.2 69 +8 +8 1019.2 1014.7
05 21.09 В 3
{5}
20 км н/о +9.1 +4.0 70 +7 +7 1018.5 1014.2
06 21.09 нст 2
{5}
20 км н/о +8.5 +4.0 73 +7 +7 1018.5 1014.1 +8.3
07 21.09 В 2
{4}
20 км н/о +10.1 +4.3 67 +9 +9 1018.1 1013.7
08 21.09 В 2
{5}
20 км н/о +13.0 +4.5 56 +12 +12 1017.8 1013.6
09 21.09 В 2
{5}
19 км н/о +16.2 +4.9 47 +16 +16 1017.5 1013.2
10 21.09 ЮВ 3
{5}
20 км н/о +18.4 +4.7 40 +19 +19 1016.7 1012.5
11 21.09 В 3
{6}
20 км н/о +20.3 +6.2 40 +21 +21 комфорт 1015.8 1011.7
12 21.09 В 4
{7}
20 км н/о +22.8 +7.1 36 +24 +24 комфорт 1015.2 1011.2
13 21.09 ЮВ 4
{7}
20 км н/о +24.2 +8.0 36 +25 +25 комфорт 1014.3 1010.2
14 21.09 ЮВ 4
{7}
20 км н/о +25.7 +9.4 36 +26 +26 жарко 1013.5 1009.3
15 21.09 ЮВ 4
{7}
20 км н/о +26.4 +10.4 37 +27 +27 жарко 1012.7 1008.7
16 21.09 В 3
{6}
20 км н/о +26.5 +11.2 38 +27 +27 жарко 1011.8 1007.7
17 21.09 В 2
{6}
20 км н/о +25.1 +12.0 44 +27 +27 жарко 1011.3 1007.2
18 21.09 В 2
{7}
20 км н/о +22.5 +11.8 51 +25 +25 комфорт 1011.2 1007.2 +26.8
19 21.09 В 2
{4}
20 км н/о +20.8 +11.3 54 +23 +23 комфорт 1011.5 1007.3
20 21.09 В 2
{4}
20 км н/о +20.0 +11.4 58 +22 +22 комфорт 1011.2 1007.1
21 21.09 ЮВ 3
{5}
20 км н/о +19.7 +11.6 60 +21 +21 комфорт 1011.0 1006.8

 

Местоположение метеостанции Семмерзэйк (Бельгия): широта 50.93 долгота 3.67 высота над уровнем моря 37 м.

В архиве по умолчанию представлена погода в Семмерзэйке за последнюю неделю. Архивные данные за месяц целиком и за предыдущие месяцы, начиная с января 2011 года, Вы можете получить, выбрав интересующий диапазон дат из раскрывающегося списка и нажав кнопку "Ввод!".


*Определитесь, кто Вы:
робот инопланетянин человек

Внимание! Время в таблицах - всемирное. Для получения местного времени необходимо прибавить поправку, которая равна 1 ч.

Смотрите также архив погоды в соседних городах и на ближайших метеорологических станциях:

Погода в Мелле (Бельгия) (12 км)
Погода в Генте (Бельгия) (30 км)
Погода в Вестдорпе (Нидерланды) (36 км)
Погода в Бейтеме (Бельгия) (39 км)
Погода в Шьевре (Бельгия) (42 км)
Погода в Уккеле (Бельгия) (50 км)
Погода в Хуфдплате (Нидерланды) (50 км)
Погода в Цадзанде (Нидерланды) (54 км)
Погода в Зебрюгге (Бельгия) (55 км)
Погода в Лилле (Франция) (57 км)

Пояснения к столбцам:

Ветер - указаны скорость ветра в м/с - средняя за 10 мин, порывы в срок и между сроками (в фигурных скобках) и направление, откуда дует ветер: С - северный, СВ - северо-восточный, В - восточный, ЮВ - юго-восточный, Ю - южный, ЮЗ - юго-западный, З - западный, СЗ - северо-западный.
Видимость - горизонтальная дальность видимости в метрах или километрах. При видимости от 1 до 10 км при отсутствии осадков обычно наблюдается дымка, при ухудшении видимости до 1 км и менее - туман. В сухую погоду видимость может ухудшаться дымом, пылью или мглою.
Явления - указаны атмосферные явления, наблюдавшиеся в срок или в последний час перед сроком; фигурными скобками обозначены явления, наблюдавшиеся между сроками (за 1-3 часа до срока); квадратными скобками обозначены град или гололедные отложения с указанием их диаметра в мм.
Облачность - указаны через наклонную черту общая и нижняя облачность в баллах и высота нижней границы облаков в метрах; квадратными скобками обозначены формы облаков: Ci - перистые, Cs - перисто-слоистые, Cc - перисто-кучевые, Ac - высококучевые, As - высокослоистые, Sc - слоисто-кучевые, Ns - слоисто-дождевые, Cu - кучевые, Cb - кучево-дождевые. Подробнее классификацию облаков см. в Атласе облаков (PDF).
T - Температура воздуха - температура, измеренная на высоте 2 м над землей.
Td - Температура точки росы - температура, при понижении до которой содержащийся в воздухе водяной пар достигнет насыщения.
f - Относительная влажность воздуха - влажноcть воздуха, измеренная на высоте 2 м над землей.
Te - Эффективная температура - температура, которую ощущает одетый по сезону человек в тени. Характеристика душности погоды. При расчете учитывается влияние влажности воздуха и скорости ветра на теплоощущения человека.
Tes - Эффективная температура на солнце - температура, которую ощущает человек, с поправкой на солнечный нагрев. Характеристика знойности погоды. Зависит от высоты солнца над горизонтом, облачности и скорости ветра. Ночью, в пасмурную погоду, а также при ветре 12 м/с и более поправка равна нулю.
P - Атмосферное давление - приведенное к уровню моря атмосферное давление.
Po - Атмосферное давление - измеренное на уровне метеостанции атмосферное давление.
Tmin - Минимальная температура - минимум температуры воздуха на высоте 2 м над землей.
Tmax - Максимальная температура - максимум температуры воздуха на высоте 2 м над землей.
R - Количество осадков - Количество выпавших осадков за период времени, мм. При наведении курсора мыши на число - период времени, за который выпало указанное количество осадков.
R24 - Количество осадков - Количество выпавших осадков за 24 часа, мм.
S - Снежный покров - Высота снежного покрова, см. При наведении курсора мыши на число - состояние снежного покрова и степень покрытия местности в баллах.